Location: Alexandria
(38.8050°N, 77.0470°W)
Time: 05:35:08
(UTC-05:00)

Hubble Space Telescope - Pass Details

Date: 19 November 2017
Orbit: 537 x 541 km, 28.5° (Epoch: 18 November)

Event Time Altitude Azimuth Distance (km) Brightness Sun altitude
Exits shadow 05:54:50 - 234° (SW) 2,181 3.5 -11.9°
Reaches altitude 10° 05:56:08 10° 223° (SW) 1,779 3.1 -11.6°
Maximum altitude 05:59:05 19° 177° (S) 1,302 3.0 -11.1°
Drops below altitude 10° 06:02:03 10° 131° (SE) 1,781 4.6 -10.5°
Sets 06:04:47 0° 114° (ESE) 2,672 6.5 -10.0°
